Regional Weather Roundup
Issued by NWS

Home | Current Version | Previous Version | Graphics & Text | Print | Product List | Glossary On
Versions: 1 2 3 4 5 6 7 8 9 10 11 12 13 14 15 16 17 18 19 20 21 22 23 24 25 26 27 28 29 30 31 32 33 34 35 36 37 38 39 40 41 42 43 44 45 46 47 48 49 50
000
ASUS43 KMKX 190111
RWRWI

WISCONSIN REGIONAL WEATHER ROUNDUP
NATIONAL WEATHER SERVICE MILWAUKEE/SULLIVAN WI
800 PM CDT THU SEP 18 2014

NOTE: "FAIR" INDICATES FEW OR NO CLOUDS BELOW 12,000 FEET WITH NO
SIGNIFICANT WEATHER AND/OR OBSTRUCTIONS TO VISIBILITY.

WIZ001-002-006>008-014>016-023>028-190200-
NORTHWEST WISCONSIN

CITY           SKY/WX    TMP DP  RH WIND       PRES   REMARKS
SUPERIOR ARPT  CLOUDY    48  45  91 NE9       30.06R
ASHLAND        CLEAR     41  40  96 CALM      30.09R
HAYWARD        CLEAR     53  50  89 SE5       30.06R
SIREN          CLEAR     58  53  84 SE5       30.03R
RICE LAKE      CLEAR     55  51  85 E5        30.06S
LADYSMITH      CLEAR     54  51  90 SE3       30.10R
EAU CLAIRE     NOT AVBL
MENOMONIE      CLEAR     58  54  87 E7        30.05S
NEW RICHMOND   CLEAR     59  55  85 SE6       30.03R
OSCEOLA        CLEAR     61  56  85 SE10      30.04R
$$

WIZ003>005-009-010-017-018-190200-
NORTH CENTRAL WISCONSIN

CITY           SKY/WX    TMP DP  RH WIND       PRES   REMARKS
WOODRUFF       CLEAR     50  47  89 CALM      30.09F
RHINELANDER    CLEAR     50  47  89 SE6       30.11S
EAGLE RIVER    CLEAR     49  46  92 CALM      30.10F
LAND O LAKES   CLEAR     46  44  92 CALM      30.11S
PHILLIPS       CLEAR     51  48  89 SE6       30.09R
TOMAHAWK       CLEAR     46  45  94 CALM      30.11S FOG
MEDFORD        CLEAR     48  47  94 SE5       30.10S
MERRILL        CLEAR     51  49  91 CALM      30.12R
$$

WIZ029-030-035-036-043>047-190200-
CENTRAL WISCONSIN

CITY           SKY/WX    TMP DP  RH WIND       PRES   REMARKS
WAUSAU         CLEAR     51  48  89 S7        30.11R
MOSINEE        CLEAR     48  48 100 SE3       30.13S
MARSHFIELD     CLEAR     51  48  89 E5        30.11R
STEVENS POINT  CLEAR     48  46  91 E3        30.13S
WAUPACA        CLEAR     53  51  92 CALM      30.14R
WAUTOMA        CLEAR     51  49  93 CALM      30.14R
WISC RAPIDS    CLEAR     53  49  86 E5        30.13R
CAMP DOUGLAS   CLEAR     54  54 100 SE5       30.11R
$$

WIZ011>013-019>022-031-037>040-048>050-190200-
NORTHEAST WISCONSIN

CITY           SKY/WX    TMP DP  RH WIND       PRES   REMARKS
ANTIGO         CLEAR     47  45  95 SE6       30.14R
STURGEON BAY   CLEAR     48  43  81 E3        30.17R
GREEN BAY      CLEAR     49  47  93 E6        30.15S
MANITOWOC      CLEAR     50  48  93 CALM      30.17R
APPLETON       MOCLDY    55  46  71 VRB5      30.14S
CLINTONVILLE   CLEAR     50  46  87 CALM      30.14R
OSHKOSH        CLEAR     51  50  96 S5        30.14R
$$

WIZ032>034-041-042-053>061-190200-
SOUTHWEST WISCONSIN

CITY           SKY/WX    TMP DP  RH WIND       PRES   REMARKS
LA CROSSE      CLEAR     63  55  75 SE8       30.06S
SPARTA         CLEAR     56  52  88 E5        30.10S
VIROQUA        FAIR      57  57  98 E8        30.09S
BOSCOBEL       CLEAR     60  56  86 NE3       30.09R
PRAIRIE DU CHI CLEAR     61  54  76 E6        30.07R
PLATTEVILLE    FAIR      59  53  79 CALM      30.10R
$$

WIZ056-057-062-063-064-067-068-190200-
SOUTH CENTRAL WISCONSIN

CITY           SKY/WX    TMP DP  RH WIND       PRES   REMARKS
BARABOO/DELLS  CLEAR     52  49  90 E3        30.12S
LONE ROCK      CLEAR     59  52  77 E5        30.11R
WATERTOWN      CLEAR     54  53  95 E6        30.14R
MADISON        MOCLDY    56  52  86 CALM      30.12S
MIDDLETON      FAIR      55  54  96 CALM      30.13R
MONROE         CLEAR     59  54  82 E5        30.12R
JANESVILLE     CLEAR     59  54  82 E8        30.12R
$$

WIZ051-052-058>065-066-070>072-190200-
SOUTHEAST WISCONSIN

CITY           SKY/WX    TMP DP  RH WIND       PRES   REMARKS
MILWAUKEE      CLOUDY    56  51  84 N6        30.17R
WAUKESHA       MOCLDY    52  48  87 E7        30.17R
MILWAUKEE/TIMM CLOUDY    55  48  76 CALM      30.17R
RACINE         CLOUDY    57  52  83 NE3       30.17R
BURLINGTON     CLOUDY    53  51  92 E6        30.16R
KENOSHA        CLOUDY    55  52  89 NE7       30.16R
FOND DU LAC    CLEAR     52  49  89 S9        30.15R
SHEBOYGAN      PTCLDY    48  45  89 CALM      30.17R
WEST BEND      PTCLDY    50  46  87 CALM      30.17R
JUNEAU         CLEAR     54  51  88 E8        30.15R
$$

LSZ147-162-190200-
LAKE SUPERIOR

STATION/POSITION TIME  TEMP    WIND        PRES    WAVE
                       AIR SEA DIR/SP/G            HT/PER
                 (UTC) (F)     (DEG/KT/KT) (MB)    (FT/S)
W MID LAKE BUOY  0050   47 47   80/  8/ 10 1019.1F   1/ 3
DEVILS ISLAND    0100   48      90/ 10/ 11 1019.1F
PORT WING        0040   51      80/  4/  6 1018.3S
SAXON HARBOR     0000   49        CALM     1018.6F
$$

LMZ867-665-643>646-190200-
LAKE MICHIGAN

STATION/POSITION TIME  TEMP    WIND        PRES    WAVE
                       AIR SEA DIR/SP/G            HT/PER
                 (UTC) (F)     (DEG/KT/KT) (MB)    (FT/S)
N MID LAKE BUOY  0050   53 58   70/  2/  4 1022.1R   0
NORTHPORT PIER   0000   53      90/  4/  6 1021.0S
SISTER BAY       2257   54     140/  6/ 10   N/A
KEWAUNEE LAKESHO 0000   52      90/  3/  4 1020.1F
SHEBOYGAN LAKESH 0100   51 49   30/  4/  4 1022.0R
PORT WASHINGTON  0040   56      80/  4/  6 1022.0R
ATWATER BUOY     0100   56      60/  4/  6 1022.4R
MILWAUKEE LAKESH 0000   56      20/  5/  5   N/A
S MID LAKE BUOY  0050   60 65  360/  8/ 10 1020.9R   2/ 6
KENOSHA   LAKESH 0100   57      10/  8/  8 1021.0R
$$

TC  - TEMPERATURE IN CELSIUS
VSB - VISIBILITY IN STATUTE MILES
WCI - WIND CHILL INDEX
HX  - HEAT INDEX



USA.gov is the U.S. government's official web portal to all federal, state and local government web resources and services.